Weather observations for the past three days for
Laramie Regional Airport
Metric (Imperial)
Date Time (mdt) Wind (kph) Vis. (km) Weather Sky Cond. Temperature (ºC) Relative Humidity Wind Chill (°C) Heat Index (°C) Pressure Precipitation (cm)
Air Dwpt 6 hour altimeter (cm) sea level (mb) 1 hr 3 hr 6 hr
Max. Min.
13 06:53 S 11 16.09 Fair CLR 16.1 -0.6 32% 77.14 1014.9
13 05:53 S 13 16.09 Fair CLR 12.8 -2.8 17.2 12.8 34% 77.09 1014.4
13 04:53 SE 6 16.09 Fair CLR 12.8 -3.3 33% 77.04 1013.6
13 03:53 S 11 16.09 Fair CLR 15.6 -3.3 27% 77.01 1012.6
13 02:53 S 13 16.09 Fair CLR 13.9 -3.3 30% 76.96 1012.6
13 01:53 S 19 16.09 Fair CLR 16.1 -2.8 27% 76.96 1012.2
13 00:53 S 13 16.09 Fair CLR 16.7 -4.4 23% 76.96 1012.3
12 23:53 SE 13 16.09 Fair CLR 16.1 -3.9 33.9 16.1 25% 76.96 1012.2
12 22:53 SW 11 16.09 Fair CLR 20 -6.1 17% 76.96 1012.0
12 21:53 N 11 16.09 Fair CLR 23.9 -6.7 12% 24 76.94 1011.5
12 20:53 N 15 16.09 Fair CLR 26.1 -5 12% 25 76.91 1010.8
12 19:53 N 24 16.09 Fair CLR 30.6 -4.4 10% 29 76.89 1010.3
12 18:53 NW 19 16.09 Fair CLR 32.8 -7.8 7% 30 76.86 1010.3
12 17:53 W 33 G 43 16.09 Fair and Breezy CLR 34.4 -7.8 35 32.2 6% 32 76.84 1010.5
12 16:53 NW 20 G 37 16.09 Fair CLR 34.4 -7.8 6% 32 76.86 1011.0
12 15:53 NW 26 G 43 16.09 Fair CLR 34.4 -8.9 6% 32 76.91 1011.2
12 14:53 NW 26 G 54 16.09 Fair CLR 33.9 -7.8 6% 31 76.91 1011.2
12 13:53 N 17 G 43 16.09 Fair CLR 33.9 -5 8% 31 76.91 1011.1
12 12:53 W 31 G 44 16.09 Fair CLR 33.3 -3.3 9% 31 76.94 1011.2
12 11:53 NW 28 G 52 16.09 Fair CLR 32.8 -1.1 32.8 14.4 11% 30 76.96 1011.5
12 10:53 N 19 G 41 16.09 Fair CLR 30.6 0 14% 29 76.96 1011.8
12 09:53 N 26 16.09 Fair CLR 27.8 -1.1 15% 27 76.96 1012.3
12 08:53 NE 9 16.09 Fair CLR 25.6 -0.6 18% 25 76.96 1012.2
12 07:53 SE 11 16.09 Fair CLR 22.2 1.7 26% 76.94 1011.6
12 06:53 SE 9 16.09 Fair CLR 17.8 0.6 32% 76.89 1010.9
12 05:53 SE 17 16.09 Fair CLR 14.4 0 20.6 12.8 38% 76.84 1010.7
12 04:53 SE 15 16.09 Fair CLR 12.8 1.7 47% 76.78 1010.7
12 03:53 S 15 16.09 Fair CLR 15 1.7 41% 76.76 1010.0
12 02:53 SW 9 16.09 Fair CLR 16.7 1.7 37% 76.76 1009.7
12 01:53 S 19 16.09 Fair CLR 17.8 2.2 35% 76.78 1010.1
12 00:53 S 13 16.09 Fair CLR 19.4 1.7 31% 76.86 1010.3
11 23:53 S 19 16.09 Fair CLR 20.6 1.7 33.3 18.3 29% 76.86 0.0
11 22:53 S 19 16.09 Fair CLR 20.6 1.7 29% 76.89 1011.3
11 21:53 SE 13 16.09 Fair CLR 21.1 1.7 28% 76.86 1011.8
11 20:53 SE 17 16.09 Fair CLR 23.9 1.7 23% 25 76.86 1011.9
11 19:53 E 26 16.09 Fair CLR 27.8 1.1 18% 27 76.84 1011.5
11 18:53 N 17 16.09 Fair CLR 32.2 -2.8 10% 30 76.81 1011.2
11 17:53 W 22 16.09 Fair CLR 32.8 -2.8 33.9 29.4 10% 30 76.84 1011.9
11 16:53 N 11 16.09 Fair CLR 32.8 -2.8 10% 30 76.86 1012.1
11 15:53 Vrbl 6 G 28 16.09 Fair CLR 31.1 -3.3 10% 29 76.89 1012.3
11 14:53 N 17 G 33 16.09 Fair CLR 32.2 -3.9 9% 30 76.91 1012.5
11 13:53 Calm 16.09 A Few Clouds FEW120 30 -2.2 12% 28 76.96 1013.6
11 12:53 E 17 16.09 NULL NULL 31.7 -2.2 11% 30 77.01 1013.6
11 11:53 Calm 0.00 NULL NULL 30.6 -0.6 31.7 10 13% 29 77.04 1014.1
11 10:53 NE 7 16.09 Fair CLR 28.9 1.7 17% 27 77.04 1013.8
11 09:53 Calm 16.09 Fair CLR 25 2.8 24% 25 77.06 1014.8
11 08:53 S 6 16.09 Fair CLR 21.7 4.4 32% 77.09 1015.4
11 07:53 SE 11 16.09 Fair CLR 17.2 3.9 41% 77.06 1016.1
11 06:53 S 11 16.09 Fair CLR 14.4 2.8 46% 77.06 1016.3
11 05:53 SE 15 16.09 Fair CLR 10 2.8 15 8.3 61% 8 77.01 1015.7
11 04:53 S 9 16.09 Fair CLR 8.9 3.9 71% 8 77.01 1015.3
11 03:53 SW 11 16.09 Fair CLR 11.1 2.2 55% 76.99 1014.4
11 02:53 S 15 16.09 Fair CLR 12.2 3.3 55% 76.99 1014.3
11 01:53 S 15 16.09 Fair CLR 12.2 3.9 57% 77.01 1014.9
11 00:53 SW 15 16.09 Fair CLR 15 3.9 48% 77.01 1014.3
10 23:53 SW 13 16.09 Fair CLR 13.9 5 26.1 13.9 55% 77.04 1015.4 0.03
10 22:53 SE 9 16.09 Fair CLR 17.8 5.6 45% 77.06 1014.7
10 21:53 SE 9 16.09 Fair CLR 18.3 6.1 45% 77.09 1015.5
10 20:53 SW 9 16.09 A Few Clouds FEW110 20 7.2 44% 77.06 1015.7 0.03
10 19:53 E 15 16.09 A Few Clouds FEW120 21.7 7.8 41% 77.04 1015.9
10 18:53 SW 13 G 46 16.09 Light Rain OVC100 21.7 6.7 38% 77.11 1018.0 0.03
10 17:53 SW 44 G 63 16.09 A Few Clouds and Windy FEW100 26.1 2.8 30.6 25.6 22% 26 76.99 1015.8
10 16:53 Vrbl 6 16.09 A Few Clouds FEW120 29.4 -0.6 14% 28 76.96 1014.4
10 15:53 N 7 16.09 A Few Clouds FEW110 30 -0.6 14% 28 76.96 1014.7
10 14:53 Calm 16.09 A Few Clouds FEW110 30 0 14% 28 77.04 1015.1
10 13:53 Vrbl 6 16.09 Fair CLR 28.3 0 16% 27 77.06 1015.5
10 12:53 N 9 G 33 16.09 Fair CLR 27.8 0 16% 27 77.11 1016.0
10 11:53 SW 9 16.09 Fair CLR 26.1 0 27.8 7.8 18% 25 77.14 1016.4
10 10:53 N 9 16.09 Fair CLR 26.1 1.1 20% 26 77.14 1015.9
10 09:53 Vrbl 6 16.09 Fair CLR 23.3 5 31% 77.14 1016.3
10 08:53 S 13 16.09 Fair CLR 20 3.9 35% 77.17 1016.6
10 07:53 S 9 16.09 Fair CLR 15 3.3 46% 77.14 1017.1
Date Time (mdt) Wind (kph) Vis. (km) Weather Sky Cond. Air Dwpt Max. Min. Relative Humidity Wind Chill (°C) Heat Index (°C) altimeter (cm) sea level (mb) 1 hr 3 hr 6 hr
6 hour
Temperature (ºC) Pressure Precipitation (cm)